Time,TemperatureF,DewpointF,PressureIn,WindDirection,WindDirectionDegrees,WindSpeedMPH,WindSpeedGustMPH,Humidity,HourlyPrecipIn,Conditions,Clouds,dailyrainin,SoftwareType,DateUTC
2013-04-06 00:02:00,62.0,-99.9,30.14,North,4,11.0,12.0,-999,-99.99,,,-99.99,,2013-04-06 05:02:00,
2013-04-06 00:13:00,62.0,-99.9,30.14,North,6,11.0,13.0,-999,-99.99,,,-99.99,,2013-04-06 05:13:00,
2013-04-06 00:23:00,62.0,-99.9,30.13,NNE,16,11.0,13.0,-999,-99.99,,,-99.99,,2013-04-06 05:23:00,
2013-04-06 00:33:00,62.0,-99.9,30.13,North,10,12.0,14.0,-999,-99.99,,,-99.99,,2013-04-06 05:33:00,
2013-04-06 00:43:00,62.0,-99.9,30.14,North,7,12.0,13.0,-999,-99.99,,,-99.99,,2013-04-06 05:43:00,
2013-04-06 00:52:00,62.0,-99.9,30.14,North,2,9.0,12.0,-999,-99.99,,,-99.99,,2013-04-06 05:52:00,
2013-04-06 01:03:00,62.0,-99.9,30.14,North,356,10.0,12.0,-999,-99.99,,,-99.99,,2013-04-06 06:03:00,
2013-04-06 01:12:00,62.0,-99.9,30.14,North,351,9.0,11.0,-999,-99.99,,,-99.99,,2013-04-06 06:12:00,
2013-04-06 01:23:00,62.0,-99.9,30.14,North,351,9.0,10.0,-999,-99.99,,,-99.99,,2013-04-06 06:23:00,
2013-04-06 01:33:00,61.0,-99.9,30.14,North,355,8.0,9.0,-999,-99.99,,,-99.99,,2013-04-06 06:33:00,
2013-04-06 01:43:00,61.0,-99.9,30.14,North,354,9.0,9.0,-999,-99.99,,,-99.99,,2013-04-06 06:43:00,
2013-04-06 01:53:00,61.0,-99.9,30.14,North,355,7.0,8.0,-999,-99.99,,,-99.99,,2013-04-06 06:53:00,
2013-04-06 02:05:00,61.0,-99.9,30.13,North,8,7.0,8.0,-999,-99.99,,,-99.99,,2013-04-06 07:05:00,
2013-04-06 02:12:00,61.0,-99.9,30.13,North,4,7.0,8.0,-999,-99.99,,,-99.99,,2013-04-06 07:12:00,
2013-04-06 02:22:00,-999.0,-99.9,30.13,North,4,8.0,9.0,-999,-99.99,,,-99.99,,2013-04-06 07:22:00,
2013-04-06 02:45:00,61.0,-99.9,30.13,NNE,12,7.0,8.0,-999,-99.99,,,-99.99,,2013-04-06 07:45:00,
2013-04-06 02:53:00,61.0,-99.9,30.13,NNE,17,6.0,9.0,-999,-99.99,,,-99.99,,2013-04-06 07:53:00,
2013-04-06 03:02:00,61.0,-99.9,30.13,North,11,7.0,8.0,-999,-99.99,,,-99.99,,2013-04-06 08:02:00,
2013-04-06 03:13:00,61.0,-99.9,30.12,NNE,21,7.0,9.0,-999,-99.99,,,-99.99,,2013-04-06 08:13:00,
2013-04-06 03:22:00,61.0,-99.9,30.12,NNE,17,6.0,8.0,-999,-99.99,,,-99.99,,2013-04-06 08:22:00,
2013-04-06 03:32:00,61.0,-99.9,30.12,NNE,20,6.0,8.0,-999,-99.99,,,-99.99,,2013-04-06 08:32:00,
2013-04-06 03:43:00,61.0,-99.9,30.12,NNE,16,7.0,8.0,-999,-99.99,,,-99.99,,2013-04-06 08:43:00,
2013-04-06 03:52:00,61.0,-99.9,30.12,NNE,21,7.0,12.0,-999,-99.99,,,-99.99,,2013-04-06 08:52:00,
2013-04-06 04:02:00,61.0,-99.9,30.13,NNE,22,8.0,9.0,-999,-99.99,,,-99.99,,2013-04-06 09:02:00,
2013-04-06 04:13:00,61.0,-99.9,30.12,NNE,16,6.0,9.0,-999,-99.99,,,-99.99,,2013-04-06 09:13:00,
2013-04-06 04:22:00,61.0,-99.9,30.12,NNE,19,7.0,9.0,-999,-99.99,,,-99.99,,2013-04-06 09:22:00,
2013-04-06 04:33:00,61.0,-99.9,30.12,NNE,28,8.0,11.0,-999,-99.99,,,-99.99,,2013-04-06 09:33:00,
2013-04-06 04:43:00,61.0,-99.9,30.12,NNE,25,8.0,9.0,-999,-99.99,,,-99.99,,2013-04-06 09:43:00,
2013-04-06 04:53:00,61.0,-99.9,30.12,NNE,28,8.0,8.0,-999,-99.99,,,-99.99,,2013-04-06 09:53:00,
2013-04-06 05:04:00,61.0,-99.9,30.13,NNE,33,9.0,10.0,-999,-99.99,,,-99.99,,2013-04-06 10:04:00,
2013-04-06 05:13:00,60.0,-99.9,30.12,NNE,32,9.0,10.0,-999,-99.99,,,-99.99,,2013-04-06 10:13:00,
2013-04-06 05:23:00,60.0,-99.9,30.13,NNE,25,8.0,11.0,-999,-99.99,,,-99.99,,2013-04-06 10:23:00,
2013-04-06 05:34:00,60.0,-99.9,30.12,NNE,30,10.0,12.0,-999,-99.99,,,-99.99,,2013-04-06 10:34:00,
2013-04-06 05:43:00,60.0,-99.9,30.12,NNE,26,11.0,11.0,-999,-99.99,,,-99.99,,2013-04-06 10:43:00,
2013-04-06 05:54:00,60.0,-99.9,30.12,NNE,26,10.0,11.0,-999,-99.99,,,-99.99,,2013-04-06 10:54:00,
2013-04-06 06:03:00,60.0,-99.9,30.13,NNE,26,10.0,12.0,-999,-99.99,,,-99.99,,2013-04-06 11:03:00,
2013-04-06 06:13:00,60.0,-99.9,30.13,NNE,22,9.0,11.0,-999,-99.99,,,-99.99,,2013-04-06 11:13:00,
2013-04-06 06:23:00,60.0,-99.9,30.13,NNE,28,10.0,11.0,-999,-99.99,,,-99.99,,2013-04-06 11:23:00,
2013-04-06 06:33:00,60.0,-99.9,30.14,NNE,25,10.0,11.0,-999,-99.99,,,-99.99,,2013-04-06 11:33:00,
2013-04-06 06:43:00,60.0,-99.9,30.14,NNE,31,11.0,12.0,-999,-99.99,,,-99.99,,2013-04-06 11:43:00,
2013-04-06 06:53:00,60.0,-99.9,30.14,NNE,32,10.0,11.0,-999,-99.99,,,-99.99,,2013-04-06 11:53:00,
2013-04-06 07:02:00,60.0,-99.9,30.14,NE,37,11.0,11.0,-999,-99.99,,,-99.99,,2013-04-06 12:02:00,
2013-04-06 07:13:00,60.0,-99.9,30.14,NE,44,10.0,12.0,-999,-99.99,,,-99.99,,2013-04-06 12:13:00,
2013-04-06 07:22:00,60.0,-99.9,30.14,NE,40,10.0,11.0,-999,-99.99,,,-99.99,,2013-04-06 12:22:00,
2013-04-06 07:33:00,60.0,-99.9,30.14,NE,46,9.0,11.0,-999,-99.99,,,-99.99,,2013-04-06 12:33:00,
2013-04-06 07:44:00,60.0,-99.9,30.15,NE,42,9.0,11.0,-999,-99.99,,,-99.99,,2013-04-06 12:44:00,
2013-04-06 07:53:00,60.0,-99.9,30.15,NE,47,8.0,9.0,-999,-99.99,,,-99.99,,2013-04-06 12:53:00,
2013-04-06 08:03:00,60.0,-99.9,30.16,NE,41,7.0,8.0,-999,-99.99,,,-99.99,,2013-04-06 13:03:00,
2013-04-06 08:13:00,60.0,-99.9,30.16,NE,52,6.0,8.0,-999,-99.99,,,-99.99,,2013-04-06 13:13:00,
2013-04-06 08:24:00,60.0,-99.9,30.16,NE,54,7.0,9.0,-999,-99.99,,,-99.99,,2013-04-06 13:24:00,
2013-04-06 08:33:00,60.0,-99.9,30.17,NE,47,7.0,8.0,-999,-99.99,,,-99.99,,2013-04-06 13:33:00,
2013-04-06 08:44:00,60.0,-99.9,30.17,NE,48,7.0,8.0,-999,-99.99,,,-99.99,,2013-04-06 13:44:00,
2013-04-06 08:54:00,60.0,-99.9,30.17,ENE,58,7.0,9.0,-999,-99.99,,,-99.99,,2013-04-06 13:54:00,
2013-04-06 09:05:00,60.0,-99.9,30.17,ENE,63,8.0,9.0,-999,-99.99,,,-99.99,,2013-04-06 14:05:00,
2013-04-06 09:13:00,59.0,-99.9,30.17,ENE,64,9.0,10.0,-999,-99.99,,,-99.99,,2013-04-06 14:13:00,
2013-04-06 09:23:00,59.0,-99.9,30.17,ENE,67,8.0,10.0,-999,-99.99,,,-99.99,,2013-04-06 14:23:00,
2013-04-06 09:33:00,59.0,-99.9,30.18,ENE,62,7.0,8.0,-999,-99.99,,,-99.99,,2013-04-06 14:33:00,
2013-04-06 09:43:00,60.0,-99.9,30.18,ENE,71,6.0,8.0,-999,-99.99,,,-99.99,,2013-04-06 14:43:00,
2013-04-06 09:53:00,60.0,-99.9,30.18,ENE,66,6.0,7.0,-999,-99.99,,,-99.99,,2013-04-06 14:53:00,
2013-04-06 10:02:00,60.0,-99.9,30.19,East,96,5.0,6.0,-999,-99.99,,,-99.99,,2013-04-06 15:02:00,
2013-04-06 10:12:00,60.0,-99.9,30.19,East,89,4.0,5.0,-999,-99.99,,,-99.99,,2013-04-06 15:12:00,
2013-04-06 10:23:00,60.0,-99.9,30.19,East,90,3.0,5.0,-999,-99.99,,,-99.99,,2013-04-06 15:23:00,
2013-04-06 10:34:00,60.0,-99.9,30.19,East,94,4.0,5.0,-999,-99.99,,,-99.99,,2013-04-06 15:34:00,
2013-04-06 10:43:00,61.0,-99.9,30.19,East,93,4.0,5.0,-999,-99.99,,,-99.99,,2013-04-06 15:43:00,
2013-04-06 10:54:00,61.0,-99.9,30.19,ESE,105,4.0,5.0,-999,-99.99,,,-99.99,,2013-04-06 15:54:00,
2013-04-06 11:05:00,61.0,-99.9,30.19,East,82,5.0,6.0,-999,-99.99,,,-99.99,,2013-04-06 16:05:00,
2013-04-06 11:17:00,62.0,-99.9,30.19,ESE,113,5.0,6.0,-999,-99.99,,,-99.99,,2013-04-06 16:17:00,
2013-04-06 11:23:00,61.0,-99.9,30.19,SE,128,8.0,9.0,-999,-99.99,,,-99.99,,2013-04-06 16:23:00,
2013-04-06 11:33:00,61.0,-99.9,30.19,SE,125,8.0,10.0,-999,-99.99,,,-99.99,,2013-04-06 16:33:00,
2013-04-06 11:43:00,61.0,-99.9,30.20,SE,130,8.0,9.0,-999,-99.99,,,-99.99,,2013-04-06 16:43:00,
2013-04-06 11:53:00,62.0,-99.9,30.20,ESE,117,8.0,8.0,-999,-99.99,,,-99.99,,2013-04-06 16:53:00,
2013-04-06 12:03:00,62.0,-99.9,30.21,ESE,122,6.0,8.0,-999,-99.99,,,-99.99,,2013-04-06 17:03:00,
2013-04-06 12:13:00,62.0,-99.9,30.20,SE,126,7.0,8.0,-999,-99.99,,,-99.99,,2013-04-06 17:13:00,
2013-04-06 12:23:00,62.0,-99.9,30.19,SE,126,9.0,10.0,-999,-99.99,,,-99.99,,2013-04-06 17:23:00,
2013-04-06 12:33:00,62.0,-99.9,30.20,SE,126,10.0,12.0,-999,-99.99,,,-99.99,,2013-04-06 17:33:00,
2013-04-06 12:43:00,63.0,-99.9,30.19,SE,126,10.0,11.0,-999,-99.99,,,-99.99,,2013-04-06 17:43:00,
2013-04-06 12:53:00,63.0,-99.9,30.19,ESE,121,10.0,11.0,-999,-99.99,,,-99.99,,2013-04-06 17:53:00,
2013-04-06 13:03:00,64.0,-99.9,30.19,ESE,117,9.0,11.0,-999,-99.99,,,-99.99,,2013-04-06 18:03:00,
2013-04-06 13:13:00,63.0,-99.9,30.19,ESE,121,9.0,10.0,-999,-99.99,,,-99.99,,2013-04-06 18:13:00,
2013-04-06 13:24:00,63.0,-99.9,30.19,SE,131,9.0,10.0,-999,-99.99,,,-99.99,,2013-04-06 18:24:00,
2013-04-06 13:33:00,64.0,-99.9,30.19,SE,139,7.0,9.0,-999,-99.99,,,-99.99,,2013-04-06 18:33:00,
2013-04-06 13:43:00,64.0,-99.9,30.19,SE,130,8.0,10.0,-999,-99.99,,,-99.99,,2013-04-06 18:43:00,
2013-04-06 13:52:00,64.0,-99.9,30.19,SE,131,7.0,9.0,-999,-99.99,,,-99.99,,2013-04-06 18:52:00,
2013-04-06 14:03:00,64.0,-99.9,30.18,SE,127,8.0,9.0,-999,-99.99,,,-99.99,,2013-04-06 19:03:00,
2013-04-06 14:12:00,64.0,-99.9,30.17,SE,131,8.0,9.0,-999,-99.99,,,-99.99,,2013-04-06 19:12:00,
2013-04-06 14:23:00,64.0,-99.9,30.17,SE,132,6.0,7.0,-999,-99.99,,,-99.99,,2013-04-06 19:23:00,
2013-04-06 14:33:00,64.0,-99.9,30.17,SE,126,5.0,6.0,-999,-99.99,,,-99.99,,2013-04-06 19:33:00,
2013-04-06 14:42:00,64.0,-99.9,30.17,SE,137,5.0,6.0,-999,-99.99,,,-99.99,,2013-04-06 19:42:00,
2013-04-06 14:54:00,65.0,-99.9,30.17,SE,145,5.0,6.0,-999,-99.99,,,-99.99,,2013-04-06 19:54:00,
2013-04-06 15:03:00,65.0,-99.9,30.16,SE,137,5.0,6.0,-999,-99.99,,,-99.99,,2013-04-06 20:03:00,
2013-04-06 15:13:00,65.0,-99.9,30.16,SE,138,4.0,6.0,-999,-99.99,,,-99.99,,2013-04-06 20:13:00,
2013-04-06 15:23:00,65.0,-99.9,30.16,SE,142,4.0,6.0,-999,-99.99,,,-99.99,,2013-04-06 20:23:00,
2013-04-06 15:32:00,65.0,-99.9,30.16,SE,142,4.0,6.0,-999,-99.99,,,-99.99,,2013-04-06 20:32:00,
2013-04-06 15:42:00,65.0,-99.9,30.16,SSE,148,4.0,6.0,-999,-99.99,,,-99.99,,2013-04-06 20:42:00,
2013-04-06 15:53:00,65.0,-99.9,30.15,SE,136,6.0,8.0,-999,-99.99,,,-99.99,,2013-04-06 20:53:00,
2013-04-06 16:03:00,65.0,-99.9,30.15,SE,128,5.0,6.0,-999,-99.99,,,-99.99,,2013-04-06 21:03:00,
2013-04-06 16:14:00,65.0,-99.9,30.15,SE,133,4.0,6.0,-999,-99.99,,,-99.99,,2013-04-06 21:14:00,
2013-04-06 16:22:00,65.0,-99.9,30.14,SE,138,4.0,5.0,-999,-99.99,,,-99.99,,2013-04-06 21:22:00,
2013-04-06 16:33:00,66.0,-99.9,30.14,SSE,148,4.0,5.0,-999,-99.99,,,-99.99,,2013-04-06 21:33:00,
2013-04-06 16:43:00,65.0,-99.9,30.14,SE,127,3.0,4.0,-999,-99.99,,,-99.99,,2013-04-06 21:43:00,
2013-04-06 16:53:00,66.0,-99.9,30.15,SE,130,3.0,4.0,-999,-99.99,,,-99.99,,2013-04-06 21:53:00,
2013-04-06 17:03:00,65.0,-99.9,30.14,SE,128,3.0,4.0,-999,-99.99,,,-99.99,,2013-04-06 22:03:00,
2013-04-06 17:13:00,65.0,-99.9,30.14,SSE,149,3.0,3.0,-999,-99.99,,,-99.99,,2013-04-06 22:13:00,
2013-04-06 17:23:00,65.0,-99.9,30.14,SSE,157,3.0,4.0,-999,-99.99,,,-99.99,,2013-04-06 22:23:00,
2013-04-06 17:35:00,65.0,-99.9,30.14,SE,142,3.0,3.0,-999,-99.99,,,-99.99,,2013-04-06 22:35:00,
2013-04-06 17:44:00,65.0,-99.9,30.14,SE,136,3.0,3.0,-999,-99.99,,,-99.99,,2013-04-06 22:44:00,
2013-04-06 17:55:00,65.0,-99.9,30.14,SSE,156,2.0,4.0,-999,-99.99,,,-99.99,,2013-04-06 22:55:00,
2013-04-06 18:03:00,65.0,-99.9,30.14,SSE,147,3.0,4.0,-999,-99.99,,,-99.99,,2013-04-06 23:03:00,
2013-04-06 18:14:00,65.0,-99.9,30.14,SSE,151,4.0,4.0,-999,-99.99,,,-99.99,,2013-04-06 23:14:00,
2013-04-06 18:34:00,65.0,-99.9,30.13,SE,136,6.0,12.0,-999,-99.99,,,-99.99,,2013-04-06 23:34:00,
2013-04-06 18:43:00,65.0,-99.9,30.13,SSE,147,9.0,13.0,-999,-99.99,,,-99.99,,2013-04-06 23:43:00,
2013-04-06 19:03:00,65.0,-99.9,30.13,SE,138,12.0,14.0,-999,-99.99,,,-99.99,,2013-04-07 00:03:00,
2013-04-06 19:13:00,65.0,-99.9,30.13,SE,132,12.0,13.0,-999,-99.99,,,-99.99,,2013-04-07 00:13:00,
2013-04-06 19:23:00,65.0,-99.9,30.13,SE,139,12.0,13.0,-999,-99.99,,,-99.99,,2013-04-07 00:23:00,
2013-04-06 19:33:00,65.0,-99.9,30.13,SE,134,11.0,14.0,-999,-99.99,,,-99.99,,2013-04-07 00:33:00,
2013-04-06 19:44:00,65.0,-99.9,30.13,SE,130,13.0,15.0,-999,-99.99,,,-99.99,,2013-04-07 00:44:00,
2013-04-06 19:53:00,65.0,-99.9,30.13,SE,133,11.0,13.0,-999,-99.99,,,-99.99,,2013-04-07 00:53:00,
2013-04-06 20:03:00,65.0,-99.9,30.13,SE,133,12.0,14.0,-999,-99.99,,,-99.99,,2013-04-07 01:03:00,
2013-04-06 20:12:00,65.0,-99.9,30.13,SE,134,12.0,13.0,-999,-99.99,,,-99.99,,2013-04-07 01:12:00,
2013-04-06 20:24:00,65.0,-99.9,30.13,SE,134,11.0,12.0,-999,-99.99,,,-99.99,,2013-04-07 01:24:00,
2013-04-06 20:33:00,65.0,-99.9,30.13,SE,126,10.0,13.0,-999,-99.99,,,-99.99,,2013-04-07 01:33:00,
2013-04-06 20:43:00,65.0,-99.9,30.13,SE,130,11.0,11.0,-999,-99.99,,,-99.99,,2013-04-07 01:43:00,
2013-04-06 20:53:00,65.0,-99.9,30.14,SE,137,10.0,13.0,-999,-99.99,,,-99.99,,2013-04-07 01:53:00,
2013-04-06 21:03:00,65.0,-99.9,30.13,SE,136,11.0,12.0,-999,-99.99,,,-99.99,,2013-04-07 02:03:00,
2013-04-06 21:13:00,65.0,-99.9,30.13,SE,130,10.0,11.0,-999,-99.99,,,-99.99,,2013-04-07 02:13:00,
2013-04-06 21:24:00,65.0,-99.9,30.14,SE,145,11.0,12.0,-999,-99.99,,,-99.99,,2013-04-07 02:24:00,
2013-04-06 21:33:00,65.0,-99.9,30.13,SE,135,9.0,11.0,-999,-99.99,,,-99.99,,2013-04-07 02:33:00,
2013-04-06 21:43:00,65.0,-99.9,30.13,SSE,148,9.0,10.0,-999,-99.99,,,-99.99,,2013-04-07 02:43:00,
2013-04-06 21:53:00,65.0,-99.9,30.13,SSE,148,9.0,11.0,-999,-99.99,,,-99.99,,2013-04-07 02:53:00,
2013-04-06 22:03:00,65.0,-99.9,30.13,SSE,165,8.0,9.0,-999,-99.99,,,-99.99,,2013-04-07 03:03:00,
2013-04-06 22:13:00,65.0,-99.9,30.14,SSE,165,7.0,10.0,-999,-99.99,,,-99.99,,2013-04-07 03:13:00,
2013-04-06 22:23:00,65.0,-99.9,30.14,South,172,8.0,10.0,-999,-99.99,,,-99.99,,2013-04-07 03:23:00,
2013-04-06 22:35:00,65.0,-99.9,30.13,South,175,7.0,8.0,-999,-99.99,,,-99.99,,2013-04-07 03:35:00,
2013-04-06 22:44:00,64.0,-99.9,30.13,South,178,6.0,8.0,-999,-99.99,,,-99.99,,2013-04-07 03:44:00,
2013-04-06 22:55:00,65.0,-99.9,30.13,SSE,160,8.0,9.0,-999,-99.99,,,-99.99,,2013-04-07 03:55:00,
2013-04-06 23:03:00,65.0,-99.9,30.13,SSE,159,6.0,7.0,-999,-99.99,,,-99.99,,2013-04-07 04:03:00,
2013-04-06 23:15:00,65.0,-99.9,30.13,SSE,158,6.0,7.0,-999,-99.99,,,-99.99,,2013-04-07 04:15:00,
2013-04-06 23:23:00,64.0,-99.9,30.12,SSE,152,5.0,7.0,-999,-99.99,,,-99.99,,2013-04-07 04:23:00,
2013-04-06 23:32:00,64.0,-99.9,30.12,SE,146,7.0,10.0,-999,-99.99,,,-99.99,,2013-04-07 04:32:00,
2013-04-06 23:43:00,64.0,-99.9,30.12,SSE,150,9.0,9.0,-999,-99.99,,,-99.99,,2013-04-07 04:43:00,
2013-04-06 23:53:00,64.0,-99.9,30.12,SSE,147,8.0,9.0,-999,-99.99,,,-99.99,,2013-04-07 04:53:00,